Weather Roundup
Issued by NWS Springfield, MO

Current Version | Previous Version | Text Only | Print | Product List | Glossary On
Versions: 1 2 3 4 5 6 7 8 9 10 11 12 13 14 15 16 17 18 19 20 21 22 23 24 25 26 27 28 29 30 31 32 33 34 35 36 37 38 39 40 41 42 43 44 45 46 47 48 49 50
000
NZUS99 KSGF 271907
HRRSGF

HOURLY WEATHER
NATIONAL WEATHER SERVICE SPRINGFIELD MO
200 PM CDT WED AUG 27 2014

......SGF CWA......

CITY           SKY/WX    TMP DP  RH WIND       PRES   REMARKS
SPRINGFIELD    MOSUNNY   96  66  37 NW6       30.09F HX  99
JOPLIN         PTSUNNY   94  67  41 VRB7      30.08F HX  97
WEST PLAINS    MOSUNNY   92  65  40 VRB3      30.11F HX  94
ROLLA          MOSUNNY   76  66  71 W17       30.11R THUNDER
OSAGE BEACH    MOSUNNY   91  72  52 NW6       30.09F HX  98
BRANSON        MOSUNNY   99  64  32 NE8       30.10F HX 101

......SURROUNDING SGF CWA......

CITY           SKY/WX    TMP DP  RH WIND       PRES   REMARKS
CHANUTE        MOSUNNY   94  64  37 W5        30.07F HX  95
PARSONS        MOSUNNY   94  67  41 VRB6      30.08F HX  97
COFFEYVILLE    SUNNY     95  68  41 SE8       30.06F HX  99
EMPORIA        PTSUNNY   90  65  43 CALM      30.08F HX  92
GROVE OK       SUNNY     93  68  43 NW3       30.09F HX  97
ROGERS AR      PTSUNNY   92  66  42 N6        30.11F HX  94
SILOAM SPRINGS   N/A     90  70  51 N6        30.11F HX  95
HARRISON AR    PTSUNNY   93  68  43 VRB5      30.11F HX  97
NEAR YELLVILLE MOSUNNY   93  66  40 S7        30.08F HX  96

......KANSAS AND MISSOURI......

CITY           SKY/WX    TMP DP  RH WIND       PRES   REMARKS
KANSAS CTY INT PTSUNNY   81  67  62 E10       30.13F
DOWNTOWN KC    PTSUNNY   86  67  52 E15G21    30.10F
COLUMBIA       PTSUNNY   87  75  67 N15       30.11F HX  96
SEDALIA        CLOUDY    86  74  67 NE8       30.12F HX  94
ST JOSEPH      CLOUDY    77  71  82 NE6       30.12F
ST LOUIS       PTSUNNY   94  73  50 CALM      30.08F HX 103
SPIRIT OF STL  PTSUNNY   92  73  53 NW5       30.06F HX 100
KIRKSVILLE     LGT RAIN  73  71  93 N9        30.15F
WICHITA        CLOUDY    89  64  43 VRB7      30.08F HX  90
TOPEKA         SUNNY     88  73  61 E12       30.09F HX  95
OLATHE         MOSUNNY   86  72  62 E9        30.10F HX  92

......TENNESSEE......

CITY           SKY/WX    TMP DP  RH WIND       PRES   REMARKS
MEMPHIS        PTSUNNY   92  66  42 E9        30.06F HX  94
NASHVILLE      PTSUNNY   89  70  53 E6        30.08F HX  94

......ARKANSAS.......

CITY           SKY/WX    TMP DP  RH WIND       PRES   REMARKS
FAYETTEVILLE   MOSUNNY   90  66  45 N7        30.10F HX  92
FT SMITH       MOSUNNY   93  69  45 E5        30.05F HX  98
LITTLE ROCK    MOSUNNY   92  69  47 VRB5      30.06F HX  97

......OKLAHOMA.......

CITY           SKY/WX    TMP DP  RH WIND       PRES   REMARKS
TULSA          PTSUNNY   95  68  41 SE10      30.04F HX  99
PONCA CITY     MOSUNNY   91  66  43 VRB3      30.06F HX  93
MCALESTER      MOSUNNY   91  67  44 VRB3      30.07F HX  94
OKLAHOMA CITY  MOSUNNY   92  64  39 E10G21    30.06F HX  93

......IOWA............

CITY           SKY/WX    TMP DP  RH WIND       PRES   REMARKS
DES MOINES     CLOUDY    74  66  76 SE3       30.16F
QUAD CITIES    CLOUDY    79  63  57 N3        30.16S

......ILLINOIS........

CITY           SKY/WX    TMP DP  RH WIND       PRES   REMARKS
QUINCY         PTSUNNY   81  72  74 N13       30.13F
CHICAGO        PTSUNNY   80  61  52 E9        30.13F




USA.gov is the U.S. government's official web portal to all federal, state and local government web resources and services.